Location: Arrington
(35.8681°N, 86.7092°W)
Time: 06:20:43
(UTC+00:00)

ATLAS 2AS CENTAUR R/B - Pass Details

Date: 21 February 2020
Orbit: 929 x 1283 km, 63.7° (Epoch: 05 April)

Event Time Altitude Azimuth Distance (km) Brightness Sun altitude
Rises 10:13:35 0° 336° (NNW) 4,205 5.7 -27.8°
Reaches altitude 10° 10:19:14 10° 8° (N) 3,165 5.3 -26.7°
Maximum altitude 10:21:31 11° 26° (NNE) 3,022 5.4 -26.2°
Drops below altitude 10° 10:23:46 10° 44° (NE) 3,091 5.7 -25.8°
Sets 10:29:02 0° 76° (ENE) 3,952 7.0 -24.7°
